#timestamp,LO_Frequency,Hit,StdDev 
1531962015.2,286046998.5,N
1531962035.9,286046998.1,N
1531962055.7,286047001.0,N
1531962075.6,286047000.9,N
1531962095.4,286047001.5,N
1531962115.2,286046999.7,N
1531962135.1,286047002.4,N
1531962136.0,286047002.4,N
1531962155.8,286047001.1,N
1531962175.7,286046998.9,N
1531962195.5,286046998.7,N
1531962215.3,286046998.5,N
1531962235.2,286047000.6,N
1531962255.0,286046998.4,N
1531962255.9,286046998.4,N
1531962275.8,286046998.8,N
1531962295.6,286047001.1,N
1531962315.4,286047000.8,N
1531962335.3,286047000.5,N
1531962355.1,286047001.1,N
1531962375.8,286047000.6,N
1531962395.7,286047002.7,N
1531962415.5,286046999.7,N
1531962435.4,286047000.0,N
1531962455.2,286047000.2,N
1531962475.0,286047002.1,N
1531962475.9,286047002.1,N
1531962495.8,286047000.9,N
1531962515.6,286047000.1,N
1531962535.5,286047001.6,N
1531962555.3,286047001.4,N
1531962575.1,286047001.8,N
1531962595.9,286047001.5,N
1531962615.7,286047004.2,Y
1531962635.6,286047004.2,P
1531962655.4,286047001.5,N
1531962675.2,286047002.6,N
1531962695.1,286047002.0,N
1531962696.0,286047002.0,N
1531962715.8,286047001.6,N
1531962735.6,286047001.5,N
1531962755.5,286047001.9,N
1531962775.3,286047004.3,Y
1531962795.2,286047000.0,P
1531962815.9,286047000.9,N
1531962835.7,286047000.9,N
1531962855.6,286047000.5,N
1531962875.4,286047001.1,N
1531962895.3,286047001.1,N
1531962915.1,286047000.6,N
1531962916.0,286047000.6,N
1531962935.8,286047000.2,N
1531962955.7,286047000.9,N
1531962975.5,286047002.0,Y
1531962995.3,286047002.6,P
1531963015.2,286047002.0,N
1531963035.0,286047000.1,N
1531963035.9,286047000.1,N
1531963055.8,286047000.3,N
1531963075.6,286047002.5,N
1531963095.4,286047000.2,N
1531963115.3,286047001.1,N
1531963135.1,286046999.0,N
1531963155.8,286046999.3,N
1531963175.7,286046998.6,N
1531963195.5,286047002.8,N
1531963215.4,286047000.4,N
1531963235.2,286047000.9,N
1531963255.0,286047002.7,N
1531963255.9,286047002.7,N
1531963275.8,286047001.0,N
1531963295.6,286046999.9,N
1531963315.5,286047000.4,N
1531963335.3,286047000.1,N
1531963355.1,286047000.2,N
1531963375.9,286046998.7,N
1531963395.7,286046999.0,N
1531963415.5,286046998.3,N
1531963435.4,286047000.6,N
1531963455.2,286046999.9,N
1531963475.1,286047000.7,N
1531963476.0,286047000.7,N
1531963495.8,286047000.5,N
1531963515.6,286047000.5,N
1531963535.5,286047002.8,N
1531963555.3,286046999.8,N
1531963575.1,286047000.9,N
1531963595.9,286046998.2,N
1531963615.7,286047001.2,N
1531963635.6,286047001.0,N
1531963655.4,286047001.2,N
1531963675.2,286046998.6,N
1531963695.1,286046996.6,N
1531963696.0,286046996.6,N
1531963715.8,286046996.7,N
1531963735.7,286046997.4,N
1531963755.5,286046997.7,N
1531963775.3,286046997.6,N
1531963795.2,286046996.6,N
1531963815.9,286046996.9,N
1531963835.7,286046998.7,N
1531963855.6,286046998.9,N
1531963875.4,286046998.4,N
1531963895.3,286046999.2,N
1531963915.1,286046997.1,N
1531963916.0,286046997.1,N
1531963935.8,286046997.7,N
1531963955.7,286046997.7,N
1531963975.5,286046997.7,N
1531963995.3,286046996.8,N
1531964015.2,286046996.7,N
1531964065.1,286046996.1,E
1531964075.9,286046997.9,N
1531964095.7,286046998.6,P
1531964115.5,286047000.7,N
1531964135.4,286046998.5,N
1531964155.2,286046998.1,N
1531964175.1,286046998.5,N
1531964176.0,286046998.5,N
1531964195.8,286046998.1,N
1531964215.6,286046998.1,N
1531964235.5,286046998.6,N
1531964255.3,286046998.8,N
1531964275.1,286046998.2,N
1531964295.9,286046999.9,N
1531964315.7,286047002.6,Y
1531964335.6,286046999.7,P
1531964355.4,286046999.9,N
1531964375.2,286047000.0,N
1531964395.1,286047000.3,N
1531964396.0,286047000.3,N
1531964415.8,286047002.3,Y
1531964435.7,286046999.9,P
1531964455.5,286046999.8,P
1531964475.3,286046999.9,N
1531964495.2,286047002.6,Y
1531964515.0,286047002.7,P
1531964515.9,286047002.7,N
1531964535.8,286047001.4,N
1531964555.6,286047003.9,Y
1531964575.4,286047001.9,P
1531964595.3,286047002.7,P
1531964615.1,286047002.6,P
1531964635.8,286046999.8,N
1531964655.7,286047002.1,N
1531964675.5,286047001.7,N
1531964695.4,286047001.8,N
1531964715.2,286047002.1,N
1531964735.0,286047002.5,Y
1531964735.9,286047002.5,P
1531964755.8,286046998.4,P
1531964775.6,286047000.3,N
1531964795.5,286046998.5,N
1531964815.3,286046998.2,N
1531964835.1,286046998.3,N
1531964855.9,286046998.8,N
1531964875.7,286046999.1,N
1531964895.5,286046996.5,N
1531964915.4,286046996.7,N
1531964935.2,286046996.8,N
1531964955.1,286046999.3,N
1531964956.0,286046999.3,N
1531964975.8,286046999.5,N
1531964995.6,286046998.5,N
1531965015.5,286046998.6,N
1531965035.3,286046998.5,N
1531965055.1,286047002.5,N
1531965075.9,286047001.9,N
1531965095.7,286047001.7,N
1531965115.6,286047001.8,N
1531965135.4,286047001.6,N
1531965155.2,286047001.6,N
1531965175.1,286047001.9,N
1531965176.0,286047001.9,N
1531965195.8,286047001.4,N
1531965215.6,286047001.6,N
1531965235.5,286047002.7,N
1531965255.3,286047002.6,N
1531965275.2,286047002.1,N
1531965295.9,286047004.0,N
1531965315.7,286047003.6,N
1531965335.6,286047003.3,N
1531965355.4,286047003.6,N
1531965375.2,286047003.8,N
1531965395.1,286047004.1,N
1531965396.0,286047004.1,N
1531965415.8,286047001.5,N
1531965435.7,286047004.3,N
1531965455.5,286047011.9,Y
1531965475.3,286047002.5,P
1531965495.2,286046999.8,N
1531965515.0,286047000.3,N
1531965515.9,286047000.3,N
1531965535.8,286047000.9,N
1531965555.6,286046999.9,N
1531965575.4,286047000.5,N
1531965595.3,286046998.3,N
